Location: NJAA Observatory
(40.6819°N, 74.8979°W)
Time: 11:51:32
(UTC-04:00)

Cosmos 1328 Rocket - Visible Passes

Search period start: 30 September 2014 00:00
Search period end: 10 October 2014 00:00
Orbit: 604 x 628 km, 82.5° (Epoch: 29 September)

Date Brightness Start Highest point End Pass type
(mag) Time Alt. Az. Time Alt. Az. Time Alt. Az.
30 Sep 6.7 05:34:35 10° NNE 05:37:22 16° ENE 05:40:07 10° ESE visible
30 Sep 4.0 19:41:10 10° SSW 19:45:34 68° W 19:50:01 10° N visible
01 Oct 5.9 05:50:14 10° NNE 05:54:03 28° ENE 05:57:50 10° SE visible
01 Oct 5.3 19:58:02 10° SW 20:02:07 36° WNW 20:06:15 10° N visible
02 Oct 4.6 06:06:20 10° N 06:10:38 52° E 06:14:53 10° SSE visible
02 Oct 6.3 20:15:25 10° WSW 20:18:46 21° WNW 20:22:08 10° NNW visible
03 Oct 3.5 06:22:43 10° N 06:27:08 83° W 06:31:29 10° S visible
03 Oct 7.0 20:33:54 10° W 20:35:31 12° WNW 20:37:08 10° NW visible
04 Oct 6.7 05:02:48 10° NNE 05:05:29 16° ENE 05:08:08 10° ESE visible
04 Oct 4.0 19:09:17 10° SSW 19:13:42 70° W 19:18:10 10° N visible
05 Oct 5.8 05:18:24 10° NNE 05:22:10 27° ENE 05:25:53 10° SE visible
05 Oct 5.3 19:26:07 10° SW 19:30:15 37° WNW 19:34:24 10° N visible
06 Oct 4.5 05:34:28 10° N 05:38:45 50° E 05:42:58 10° SSE visible
06 Oct 6.4 19:43:29 10° WSW 19:46:53 21° WNW 19:50:18 10° NNW visible
07 Oct 3.5 05:50:50 10° N 05:55:15 86° W 05:59:35 10° S visible
07 Oct 6.9 20:01:51 10° W 20:03:37 12° WNW 20:05:23 10° NW visible
08 Oct 6.6 04:31:00 10° NE 04:33:34 15° ENE 04:36:07 10° ESE visible
08 Oct 3.8 06:07:28 10° NNW 06:11:38 45° W 06:15:46 10° SSW visible
09 Oct 5.7 04:46:33 10° NNE 04:50:15 26° ENE 04:53:55 10° SE visible
09 Oct 4.6 06:24:24 10° NW 06:27:56 24° W 06:31:26 10° SW visible
09 Oct 5.3 18:54:12 10° SSW 18:58:21 38° WNW 19:02:31 10° N visible
